Temperature
16 15 16 16 16 16 16 16 17 17 17 16 16 16 16 15 15 15 15 15 15 15 15 16 16 16 16 16 16 16 16 16 16 17 17 17 17 17 17 17 17 17 17
17 16 16 16 16 16 16 16 16 16 16 16 16 16 15 15 15 15 15 15 15 15 15 16 16 16 16 16 16 16 16 17 16 16 17 18 18 17 17 17 17 17 17
17 17 16 16 16 16 16 16 16 16 16 16 15 15 15 15 15 15 15 15 15 15 16 16 16 16 16 16 16 16 16 16 16 16 17 19 20 20 18 17 17 16 17
17 17 17 16 16 16 15 15 15 15 15 15 15 14 14 14 14 14 14 14 14 15 15 15 15 16 16 16 16 15 15 15 16 16 16 16 18 18 19 17 17 16 16
17 17 17 16 16 15 15 15 15 15 15 14 14 14 14 14 14 14 14 13 14 14 14 14 15 15 15 15 15 15 15 15 15 16 16 16 16 16 17 19 18 17 16
17 17 16 16 15 15 15 14 14 14 14 13 13 13 13 13 13 13 13 13 13 13 13 13 14 14 14 14 15 15 15 15 15 15 16 16 16 17 17 18 17 17 17
17 17 16 16 15 15 14 14 13 13 13 13 12 12 12 12 12 12 13 13 13 13 13 13 13 13 13 13 14 14 14 15 15 15 15 16 16 17 17 17 17 17 17
18 17 16 15 15 14 13 13 12 12 12 12 12 11 11 12 12 12 12 12 12 12 12 12 12 12 12 12 13 13 13 14 14 14 15 15 15 16 16 16 17 17 17
17 17 16 15 14 14 13 12 12 11 11 11 11 11 11 11 11 11 11 11 11 11 11 11 11 11 11 12 12 12 12 13 13 14 14 14 15 15 15 15 16 17 18
17 16 15 15 14 13 13 12 11 11 10 10 10 10 10 10 10 10 10 10 10 10 10 11 11 11 11 11 11 11 11 12 12 13 13 14 14 14 14 15 15 15 16
16 15 15 14 13 13 12 11 11 10 10 9 9 9 9 9 9 9 9 9 9 9 9 10 10 10 10 10 10 11 11 11 11 12 12 13 13 14 14 14 14 14 15
15 15 14 13 12 12 11 11 10 10 9 9 8 8 8 8 8 8 8 8 8 8 9 9 9 10 10 10 10 10 10 10 10 11 11 12 12 13 13 13 14 14 14
15 14 13 12 12 11 10 10 9 9 8 8 8 7 7 7 7 7 7 7 7 7 8 8 9 9 9 10 10 10 10 10 10 10 10 11 11 12 12 13 13 13 14
14 13 12 11 11 10 9 9 8 8 8 7 7 7 7 7 6 6 6 6 6 7 7 7 8 8 9 9 9 10 10 10 10 10 10 10 10 11 11 12 13 13 13
13 12 12 11 10 9 9 8 8 7 7 7 7 7 6 6 6 6 6 6 6 6 6 7 7 8 8 9 9 9 10 9 9 9 9 10 10 10 11 11 11 12 13
13 12 11 10 10 9 8 8 7 7 7 6 6 6 6 6 6 6 6 6 6 6 6 6 6 7 8 9 9 9 9 9 9 9 9 9 9 10 10 10 11 11 12
12 11 10 10 9 9 8 8 7 7 6 6 6 6 6 6 6 5 5 5 5 5 5 5 6 6 7 8 8 9 9 9 9 9 9 9 10 9 9 10 10 10 11
11 10 10 9 9 8 8 7 7 6 6 6 6 6 5 5 5 5 5 5 5 5 5 5 5 6 6 7 8 8 8 9 9 9 9 9 9 9 9 9 10 10 10
10 10 9 9 8 8 7 7 6 6 6 6 6 5 5 5 5 5 5 5 4 4 5 5 5 5 6 7 7 8 8 8 8 8 9 9 9 9 9 9 9 10 10
10 9 9 8 8 8 7 6 6 6 6 6 5 5 5 5 5 5 5 5 4 4 4 4 5 5 5 6 7 7 7 8 8 8 8 8 9 9 9 9 9 9 10
9 9 8 8 8 7 7 6 6 6 6 5 5 5 5 5 5 5 5 5 4 4 4 4 5 5 5 6 6 7 7 8 8 9 9 9 9 9 9 9 9 9 9
9 9 8 8 8 7 7 6 6 6 6 5 5 5 5 5 5 5 5 5 5 4 4 4 5 5 5 6 6 6 7 7 8 8 9 9 9 9 9 9 9 9 9
9 8 8 8 8 7 7 6 6 6 6 5 5 5 5 5 5 5 5 5 5 5 4 4 5 5 5 5 6 6 7 7 7 8 8 8 8 8 8 9 9 9 9
9 8 8 8 7 7 7 6 6 6 6 6 5 5 6 6 5 5 5 5 5 5 5 5 5 5 5 5 6 6 6 7 7 7 7 8 8 8 8 8 9 9 9
8 8 8 7 7 7 7 6 6 6 6 6 6 6 6 6 5 6 5 5 5 5 4 5 5 5 5 5 6 6 6 7 7 7 7 8 8 8 8 9 9 9 9
8 8 7 7 7 7 7 6 6 6 6 6 6 6 6 6 6 6 6 6 5 5 5 5 5 5 5 5 6 6 6 7 7 7 7 8 8 9 9 9 9 9 9
Wind_Speed
8 6 6 5 5 6 6 7 8 9 8 8 9 9 9 7 7 7 8 8 7 6 5 5 5 7 7 7 8 8 9 8 7 7 8 9 11 11 10 11 11 12 13
6 6 5 5 6 7 7 7 8 9 9 8 8 8 9 8 7 7 7 9 9 7 5 6 6 7 6 7 8 8 7 7 6 7 7 7 8 9 11 10 10 11 10
4 4 4 5 6 7 8 8 9 9 9 9 8 9 8 7 7 8 7 9 10 8 6 6 6 6 7 7 7 8 9 8 7 8 7 6 6 4 7 9 9 8 8
2 3 4 6 7 8 8 9 9 10 9 10 9 11 9 9 8 7 7 8 8 8 7 7 6 6 6 7 8 9 8 9 9 7 8 9 6 5 4 7 8 9 8
2 4 6 7 8 9 10 10 10 11 11 11 10 11 11 10 9 8 8 7 6 6 7 6 6 6 6 7 8 7 9 9 10 8 8 9 7 9 7 5 5 7 8
5 6 8 9 10 10 11 11 11 12 12 12 12 12 13 12 12 11 10 9 7 5 5 5 5 5 6 6 7 8 10 10 10 9 9 8 7 8 8 8 7 6 6
7 9 11 12 12 12 12 13 13 13 14 14 13 13 13 14 14 13 12 10 10 8 6 5 4 5 5 6 7 8 10 11 11 11 10 9 9 7 7 8 7 6 5
9 11 12 13 12 13 13 14 14 15 15 15 14 14 14 13 13 13 13 13 12 11 9 8 7 6 6 6 6 7 9 9 11 13 12 10 10 9 9 8 7 7 7
11 13 14 13 12 14 14 15 15 15 16 16 16 15 15 14 15 16 15 15 13 12 13 11 10 9 8 7 7 7 8 8 10 12 13 12 11 10 10 9 9 8 7
13 14 14 13 13 15 16 16 16 16 17 17 16 15 16 16 16 16 16 16 16 15 15 15 14 13 11 9 8 8 8 8 9 9 11 12 12 11 11 10 10 9 9
15 15 14 14 15 17 17 17 17 17 17 17 16 17 16 17 17 16 16 16 16 16 16 16 16 15 14 13 11 11 9 9 9 9 11 12 13 11 11 11 11 10 10
15 15 15 16 17 18 18 18 18 18 18 17 17 18 17 18 18 18 17 17 17 16 17 17 17 17 17 16 15 14 12 11 11 10 9 10 10 13 12 11 13 11 11
16 15 16 17 17 18 18 18 19 19 18 18 18 18 18 18 18 18 18 17 17 17 17 17 18 18 18 18 17 16 15 13 13 12 12 11 9 11 10 11 12 11 11
15 16 17 17 17 18 18 18 18 18 18 18 18 18 18 18 18 18 18 18 18 18 18 18 18 18 19 19 18 17 16 15 14 13 12 11 10 10 9 9 10 10 11
16 17 18 18 18 18 18 18 18 17 17 18 19 19 19 19 19 18 18 18 18 18 18 18 18 18 18 18 18 18 17 17 15 14 13 13 12 11 8 7 8 8 9
17 18 19 19 19 18 18 18 18 18 18 18 19 19 19 19 19 19 19 18 18 18 18 18 18 18 18 16 15 16 17 16 16 15 14 13 13 13 13 12 9 9 10
18 19 19 19 18 18 18 18 18 18 18 18 19 19 19 20 20 20 20 19 19 18 18 18 18 18 19 14 14 16 17 16 15 15 13 12 12 14 13 13 12 11 12
18 18 18 19 18 18 18 17 17 17 18 18 18 19 19 20 20 20 20 19 17 17 16 16 17 17 17 15 15 15 17 17 16 15 14 14 12 12 12 12 11 11 12
17 17 18 18 18 17 17 17 17 17 18 18 18 19 19 20 20 20 19 18 17 16 16 15 16 15 15 14 15 15 15 15 16 15 15 14 14 12 11 11 11 11 10
16 16 17 18 17 16 16 17 18 18 18 18 19 19 19 19 19 19 18 16 15 15 14 14 13 13 13 12 15 16 13 14 13 12 13 13 12 10 13 12 12 11 11
17 17 17 16 16 16 16 16 17 17 17 18 18 19 18 18 18 17 15 15 14 13 12 12 11 10 10 11 14 15 12 11 12 11 11 11 14 11 12 12 11 9 8
17 17 16 17 16 15 15 16 17 17 17 17 18 18 18 17 15 16 15 14 12 11 10 8 8 6 5 7 11 13 11 8 10 10 9 7 14 13 12 11 10 7 7
16 16 17 17 17 15 15 16 17 17 17 17 17 17 17 16 14 14 14 12 9 8 7 5 5 4 4 6 10 12 11 10 9 8 3 4 11 11 11 12 11 10 10
16 16 17 17 17 17 16 16 16 16 16 16 16 15 15 15 13 11 10 9 8 7 5 4 4 3 4 6 8 10 11 11 11 11 8 9 9 9 8 9 11 11 11
15 15 16 17 17 17 16 16 15 15 15 16 14 14 13 13 12 11 9 8 7 6 6 5 4 3 3 2 1 5 8 9 10 10 10 11 11 11 12 11 10 10 10
16 16 16 17 17 17 16 16 15 14 14 14 13 12 11 11 11 10 8 2 3 3 3 5 5 3 2 3 1 2 2 1 3 7 10 10 11 11 11 11 10 10 10
Wind_Direction
83 78 71 63 58 44 32 23 17 16 7 4 354 348 341 335 337 341 348 340 329 308 283 269 263 259 253 250 252 247 240 240 238 243 243 233 228 231 232 234 240 234 231
87 76 66 57 44 34 21 13 10 6 360 1 346 339 336 331 337 342 349 350 343 336 311 292 276 267 266 255 253 246 256 248 227 241 247 241 225 219 227 226 226 236 234
77 63 46 33 23 16 5 359 352 347 349 343 337 340 334 332 347 350 355 353 348 349 346 324 305 286 270 257 249 244 244 252 239 235 248 251 244 220 199 218 225 224 230
60 27 5 359 355 350 346 344 339 335 332 325 331 333 328 330 336 334 342 342 348 352 353 345 332 309 285 268 254 242 246 248 248 229 238 260 296 270 219 195 204 210 220
334 335 335 335 335 335 336 336 334 329 325 319 311 306 308 315 316 320 322 322 333 341 349 348 339 326 305 290 273 261 247 243 247 244 229 227 231 242 263 240 200 204 215
309 317 321 324 326 327 329 331 331 328 324 317 309 300 300 300 302 302 306 305 309 310 323 327 331 319 313 304 286 268 249 246 248 251 243 231 227 224 231 240 234 231 223
303 313 319 323 323 324 326 326 326 323 321 315 309 302 297 294 287 287 291 293 294 292 288 293 295 300 300 296 292 280 269 252 243 239 241 241 241 243 235 239 238 237 235
312 318 320 319 319 321 323 324 324 322 319 315 311 305 298 292 291 292 294 290 286 286 286 271 262 259 265 275 278 280 274 264 252 243 240 242 240 236 234 235 235 231 227
315 319 320 317 319 320 322 322 322 319 318 316 314 303 299 297 296 295 286 283 281 280 275 267 259 253 248 251 259 264 271 274 264 253 242 237 238 234 232 230 232 237 235
316 320 321 318 319 318 319 320 318 317 315 313 313 311 310 304 298 292 291 289 286 281 276 269 263 256 247 238 238 249 253 260 266 265 259 246 240 234 228 225 225 231 245
321 322 321 320 319 319 320 320 319 317 316 316 315 311 307 305 301 295 289 286 283 281 274 267 261 256 251 243 236 242 242 245 255 261 260 253 248 241 231 224 221 220 225
320 320 320 320 320 320 321 319 318 315 315 315 312 309 306 303 300 298 297 293 286 279 273 267 261 256 252 245 239 238 239 240 243 247 253 257 251 243 239 231 223 218 217
320 318 318 319 318 319 318 316 314 314 314 313 310 308 307 306 304 302 298 294 289 281 274 268 261 255 252 248 241 238 237 237 239 239 240 245 247 247 240 237 231 222 214
317 316 317 317 317 316 315 313 313 314 312 311 309 306 305 305 304 301 299 294 290 285 277 269 262 255 250 246 242 237 235 235 235 236 236 235 235 240 242 239 239 232 220
317 318 317 317 316 315 315 314 313 312 312 310 307 307 307 306 303 300 298 295 291 286 280 272 263 256 249 244 239 236 234 233 234 232 231 230 224 227 232 238 240 240 226
318 318 317 317 316 316 315 314 312 312 311 308 307 308 307 306 304 302 299 295 291 287 283 274 266 258 251 240 227 229 235 232 232 232 230 227 215 215 218 228 235 241 236
318 317 317 316 315 314 314 313 312 312 311 308 307 307 307 306 305 303 302 298 294 290 285 277 269 261 253 243 219 216 232 233 231 230 228 229 218 203 213 213 220 233 241
317 316 316 315 315 315 315 314 313 312 310 308 308 309 308 306 305 303 301 298 296 291 286 279 271 264 253 230 212 207 225 232 229 229 227 227 229 211 208 209 209 216 222
315 314 314 314 315 315 317 316 313 312 310 309 311 310 310 307 305 304 301 299 296 291 286 277 270 263 252 225 202 200 222 225 227 227 226 223 223 204 193 216 217 216 219
317 316 315 314 315 319 320 316 313 313 311 312 311 310 309 307 304 304 303 301 298 291 288 280 271 261 248 219 196 200 218 221 222 221 224 222 227 195 187 216 222 222 219
317 316 315 315 318 320 319 314 312 311 312 311 309 310 310 308 306 306 306 304 301 295 289 282 272 262 246 209 192 196 214 217 221 222 218 213 190 199 198 220 230 228 225
320 320 318 317 319 321 319 315 312 313 313 311 310 311 313 312 312 312 310 309 307 303 298 287 277 260 226 201 188 193 214 237 233 234 233 204 171 186 197 215 229 220 223
321 320 319 318 320 324 324 316 314 315 314 313 311 312 315 314 315 316 317 318 316 309 304 291 276 249 213 187 181 192 204 221 236 242 251 136 159 183 204 217 219 218 224
321 322 321 320 322 324 322 317 316 317 316 314 314 314 316 317 320 320 322 323 321 317 315 305 287 249 214 198 192 199 203 209 224 236 211 182 188 223 242 212 211 223 227
321 321 320 320 321 323 322 321 322 322 319 315 314 315 318 319 318 322 329 329 336 341 323 315 306 283 234 182 169 222 212 214 214 215 216 215 212 215 220 222 222 222 219
321 320 322 322 323 323 322 323 326 324 320 317 316 317 319 319 319 324 332 351 321 356 350 334 322 319 11 24 323 256 266 257 187 215 220 219 219 221 221 221 220 220 220
Height
1533 1532 1531 1530 1528 1526 1524 1522 1520 1518 1515 1513 1511 1508 1506 1503 1500 1497 1493 1490 1487 1486 1486 1488 1490 1492 1494 1494 1496 1497 1498 1499 1500 1501 1502 1502 1503 1504 1505 1507 1509 1511 1512
1534 1533 1532 1531 1529 1527 1525 1523 1520 1518 1515 1513 1510 1508 1504 1502 1499 1496 1492 1490 1488 1486 1485 1486 1487 1488 1490 1490 1493 1494 1495 1496 1497 1499 1499 1499 1501 1500 1501 1502 1503 1505 1508
1534 1534 1533 1531 1529 1527 1525 1522 1519 1517 1514 1512 1510 1507 1504 1502 1499 1495 1492 1489 1487 1485 1484 1484 1484 1485 1486 1489 1490 1491 1492 1494 1495 1496 1497 1497 1496 1496 1497 1498 1499 1500 1503
1534 1533 1532 1530 1528 1526 1524 1521 1518 1515 1513 1510 1508 1506 1503 1500 1497 1494 1491 1488 1486 1484 1482 1482 1482 1483 1484 1485 1486 1488 1489 1490 1492 1492 1493 1495 1494 1495 1494 1495 1495 1497 1498
1533 1532 1530 1529 1526 1524 1521 1519 1515 1513 1510 1507 1505 1502 1501 1498 1496 1493 1490 1487 1485 1482 1481 1479 1479 1479 1480 1481 1482 1483 1484 1486 1488 1490 1490 1491 1491 1493 1494 1493 1494 1495 1495
1531 1530 1528 1527 1524 1522 1519 1516 1512 1509 1507 1504 1501 1499 1496 1494 1492 1490 1488 1485 1483 1481 1479 1478 1476 1476 1476 1476 1477 1478 1480 1481 1483 1485 1487 1488 1489 1489 1490 1491 1492 1492 1493
1529 1528 1526 1524 1521 1519 1516 1513 1509 1506 1503 1500 1497 1495 1492 1489 1487 1486 1484 1482 1480 1479 1477 1475 1473 1473 1472 1472 1472 1473 1474 1476 1477 1479 1481 1483 1485 1486 1487 1488 1488 1489 1490
1527 1526 1524 1521 1519 1516 1512 1509 1505 1502 1499 1496 1493 1490 1487 1485 1484 1481 1479 1478 1476 1475 1473 1471 1470 1469 1468 1468 1467 1467 1468 1469 1471 1473 1475 1477 1479 1481 1483 1484 1485 1486 1486
1525 1523 1521 1518 1515 1512 1509 1505 1501 1497 1494 1491 1487 1484 1482 1479 1477 1475 1473 1472 1470 1469 1467 1466 1465 1464 1463 1462 1462 1462 1462 1463 1464 1466 1468 1471 1474 1476 1477 1479 1481 1483 1482
1522 1520 1518 1515 1512 1509 1505 1501 1497 1493 1489 1485 1482 1479 1476 1473 1470 1468 1466 1464 1462 1461 1460 1460 1459 1458 1458 1457 1456 1456 1456 1457 1457 1459 1461 1464 1467 1470 1472 1473 1475 1478 1480
1519 1517 1514 1511 1508 1504 1500 1496 1492 1487 1483 1479 1475 1471 1468 1466 1463 1460 1458 1456 1454 1453 1452 1452 1451 1451 1451 1451 1451 1451 1451 1451 1451 1452 1453 1455 1459 1463 1465 1468 1470 1472 1474
1516 1513 1510 1507 1503 1499 1495 1491 1487 1482 1478 1474 1469 1465 1461 1458 1455 1453 1450 1448 1446 1444 1443 1443 1443 1443 1444 1444 1444 1444 1445 1445 1445 1445 1446 1448 1451 1454 1458 1461 1464 1466 1468
1513 1510 1507 1503 1499 1495 1491 1486 1482 1477 1473 1468 1464 1459 1455 1452 1448 1445 1442 1439 1437 1435 1434 1433 1433 1434 1435 1436 1436 1437 1438 1439 1439 1440 1440 1441 1443 1445 1449 1453 1457 1460 1462
1510 1507 1503 1499 1495 1491 1486 1481 1477 1472 1467 1463 1458 1454 1450 1446 1441 1437 1434 1431 1428 1426 1424 1423 1423 1424 1425 1426 1428 1429 1431 1432 1433 1433 1434 1435 1436 1438 1441 1444 1449 1453 1456
1506 1503 1499 1495 1491 1486 1481 1476 1471 1467 1462 1457 1452 1448 1443 1439 1435 1430 1427 1423 1420 1417 1415 1413 1413 1413 1415 1416 1418 1421 1423 1425 1426 1427 1428 1429 1430 1432 1434 1436 1440 1445 1449
1503 1499 1495 1491 1486 1481 1476 1471 1466 1461 1456 1451 1447 1442 1437 1432 1428 1423 1419 1415 1411 1408 1405 1403 1402 1403 1404 1406 1409 1412 1415 1417 1419 1420 1422 1423 1424 1425 1428 1430 1432 1437 1441
1500 1495 1491 1486 1482 1477 1472 1466 1461 1456 1451 1446 1441 1436 1431 1426 1421 1416 1412 1407 1403 1400 1396 1394 1393 1392 1393 1396 1399 1402 1406 1410 1412 1413 1415 1418 1419 1420 1422 1424 1427 1429 1433
1496 1491 1487 1482 1477 1472 1467 1462 1456 1451 1446 1441 1436 1430 1425 1419 1414 1409 1403 1399 1394 1391 1387 1384 1383 1382 1383 1386 1389 1393 1398 1402 1404 1407 1409 1411 1414 1416 1418 1420 1422 1424 1427
1492 1488 1483 1478 1473 1468 1463 1457 1451 1446 1441 1436 1430 1425 1419 1412 1406 1401 1395 1390 1386 1382 1378 1375 1373 1373 1374 1377 1381 1385 1390 1394 1397 1400 1403 1405 1408 1411 1413 1415 1418 1420 1422
1488 1483 1478 1474 1469 1464 1458 1452 1447 1441 1436 1430 1425 1419 1413 1406 1400 1394 1388 1383 1378 1374 1370 1367 1366 1365 1366 1369 1373 1378 1383 1387 1391 1394 1397 1400 1403 1405 1407 1410 1413 1415 1417
1484 1479 1474 1470 1465 1459 1454 1448 1442 1437 1431 1425 1419 1413 1407 1401 1395 1389 1383 1377 1372 1367 1364 1361 1359 1359 1360 1363 1367 1372 1377 1381 1385 1389 1392 1394 1397 1399 1402 1405 1408 1410 1413
1479 1475 1470 1465 1460 1455 1450 1443 1438 1432 1426 1420 1414 1409 1403 1397 1391 1384 1379 1373 1368 1363 1359 1357 1356 1355 1356 1359 1362 1367 1372 1377 1380 1384 1387 1389 1391 1394 1397 1400 1402 1405 1407
1476 1471 1466 1461 1456 1451 1446 1439 1433 1427 1421 1415 1410 1404 1399 1393 1387 1381 1375 1370 1365 1361 1358 1355 1354 1353 1354 1357 1360 1364 1368 1372 1376 1379 1382 1384 1386 1389 1392 1394 1397 1399 1401
1472 1467 1462 1457 1452 1447 1441 1435 1429 1423 1417 1411 1406 1401 1395 1390 1384 1378 1373 1368 1363 1360 1357 1354 1353 1352 1353 1355 1357 1360 1364 1368 1371 1374 1377 1379 1382 1384 1387 1389 1391 1392 1395
1468 1464 1459 1453 1448 1442 1436 1431 1425 1419 1413 1408 1403 1398 1393 1387 1381 1377 1372 1367 1362 1359 1356 1354 1353 1352 1353 1354 1355 1358 1362 1365 1368 1370 1373 1375 1377 1379 1382 1384 1385 1387 1389
1465 1460 1455 1449 1444 1438 1432 1427 1421 1415 1410 1404 1399 1395 1390 1385 1380 1375 1371 1366 1362 1358 1356 1354 1353 1352 1352 1352 1354 1356 1359 1361 1364 1367 1369 1370 1372 1374 1376 1378 1379 1381 1383